,,PA_Meas_PMT16A,,PR_Meas_QMR101_102,,RH_Meas_QMH101,,SR_Meas_QMS101,,TA_Meas_QMH101,,GenWind,,GenWind,
time,status,PA,status,PR,status,RH,status,SR,status,TA,status,DirAvg,status,SpdAvg,
2011-02-05, 00:00:04,VALID,918.066,VALID,0,VALID,97.229,VALID,0,VALID,19.2543,VALID,140,VALID,0.49375,
2011-02-05, 00:01:04,VALID,918.037,VALID,0,VALID,97.229,VALID,0,VALID,19.2363,VALID,141,VALID,1.24414,
2011-02-05, 00:02:04,VALID,918.027,VALID,0,VALID,97.2519,VALID,0,VALID,19.2348,VALID,140,VALID,0.980859,
2011-02-05, 00:03:04,VALID,917.998,VALID,0,VALID,97.2519,VALID,0,VALID,19.2543,VALID,151,VALID,1.08789,
2011-02-05, 00:04:04,VALID,917.987,VALID,0,VALID,97.2519,VALID,0,VALID,19.2348,VALID,148,VALID,0.911328,
2011-02-05, 00:05:04,VALID,917.977,VALID,0,VALID,97.2519,VALID,0,VALID,19.2558,VALID,150,VALID,0.952344,
2011-02-05, 00:06:04,VALID,918.025,VALID,0,VALID,97.2595,VALID,0,VALID,19.2543,VALID,162,VALID,0.942578,
2011-02-05, 00:07:04,VALID,918.018,VALID,0,VALID,97.2443,VALID,0,VALID,19.2558,VALID,162,VALID,0.600391,
2011-02-05, 00:08:04,VALID,917.994,VALID,0,VALID,97.2519,VALID,0,VALID,19.2753,VALID,171,VALID,0.852344,
2011-02-05, 00:09:04,VALID,918.013,VALID,0,VALID,97.2595,VALID,0,VALID,19.2753,VALID,187,VALID,0.826563,
2011-02-05, 00:10:04,VALID,918.015,VALID,0,VALID,97.2595,VALID,0,VALID,19.2543,VALID,188,VALID,1.13633,
2011-02-05, 00:11:04,VALID,918.03,VALID,0,VALID,97.2595,VALID,0,VALID,19.2543,VALID,164,VALID,1.04219,
2011-02-05, 00:12:04,VALID,918.026,VALID,0,VALID,97.2672,VALID,0,VALID,19.2543,VALID,164,VALID,0.829297,
2011-02-05, 00:13:04,VALID,918.004,VALID,0,VALID,97.2748,VALID,0,VALID,19.2348,VALID,177,VALID,0.704297,
2011-02-05, 00:14:04,VALID,917.956,VALID,0,VALID,97.2824,VALID,0,VALID,19.2543,VALID,177,VALID,0.655078,
2011-02-05, 00:15:04,VALID,917.918,VALID,0,VALID,97.2519,VALID,0,VALID,19.2348,VALID,177,VALID,0.648438,
2011-02-05, 00:16:04,VALID,917.935,VALID,0,VALID,97.2595,VALID,0,VALID,19.2348,VALID,176,VALID,0.853906,
2011-02-05, 00:17:04,VALID,917.932,VALID,0,VALID,97.2748,VALID,0,VALID,19.2139,VALID,152,VALID,0.939453,
2011-02-05, 00:18:04,VALID,917.951,VALID,0,VALID,97.2443,VALID,0,VALID,19.1944,VALID,152,VALID,0.787109,
2011-02-05, 00:19:04,VALID,917.93,VALID,0,VALID,97.229,VALID,0.107441,VALID,19.1749,VALID,120,VALID,0.838672,
2011-02-05, 00:20:04,VALID,917.923,VALID,0,VALID,97.2138,VALID,0.107441,VALID,19.1749,VALID,133,VALID,0.719141,
2011-02-05, 00:21:04,VALID,917.955,VALID,0,VALID,97.2367,VALID,0.107441,VALID,19.1554,VALID,141,VALID,0.86875,
2011-02-05, 00:22:04,VALID,917.946,VALID,0,VALID,97.229,VALID,0,VALID,19.1554,VALID,139,VALID,1.11719,
2011-02-05, 00:23:04,VALID,917.902,VALID,0,VALID,97.2214,VALID,0.107441,VALID,19.1749,VALID,149,VALID,0.793359,
2011-02-05, 00:24:04,VALID,917.93,VALID,0,VALID,97.1833,VALID,0.107441,VALID,19.1554,VALID,149,VALID,1.30586,
2011-02-05, 00:25:04,VALID,917.917,VALID,0,VALID,97.1833,VALID,0.107441,VALID,19.1749,VALID,149,VALID,1.00859,
2011-02-05, 00:26:04,VALID,917.925,VALID,0,VALID,97.1604,VALID,0,VALID,19.1749,VALID,149,VALID,0.988281,
2011-02-05, 00:27:04,VALID,917.909,VALID,0,VALID,97.1376,VALID,0.107441,VALID,19.1749,VALID,150,VALID,0.988281,
2011-02-05, 00:28:04,VALID,917.886,VALID,0,VALID,97.1299,VALID,0,VALID,19.1749,VALID,147,VALID,1.16641,
2011-02-05, 00:29:04,VALID,917.867,VALID,0,VALID,97.0994,VALID,0,VALID,19.1944,VALID,123,VALID,1.44687,
2011-02-05, 00:30:04,VALID,917.843,VALID,0,VALID,97.0613,VALID,0,VALID,19.2139,VALID,136,VALID,0.926172,
2011-02-05, 00:31:04,VALID,917.797,VALID,0,VALID,97.0156,VALID,0.107441,VALID,19.2543,VALID,138,VALID,1.17695,
2011-02-05, 00:32:04,VALID,917.791,VALID,0,VALID,96.9851,VALID,0,VALID,19.2543,VALID,148,VALID,0.982031,
2011-02-05, 00:33:04,VALID,917.757,VALID,0,VALID,96.9089,VALID,0,VALID,19.3338,VALID,148,VALID,1.44219,
2011-02-05, 00:34:04,VALID,917.733,VALID,0,VALID,96.8326,VALID,0,VALID,19.3518,VALID,152,VALID,1.3207,
2011-02-05, 00:35:04,VALID,917.709,VALID,0,VALID,96.7488,VALID,0,VALID,19.3728,VALID,151,VALID,1.19531,
2011-02-05, 00:36:04,VALID,917.69,VALID,0,VALID,96.6497,VALID,0,VALID,19.3518,VALID,163,VALID,1.29414,
2011-02-05, 00:37:04,VALID,917.689,VALID,0,VALID,96.5506,VALID,0,VALID,19.3518,VALID,153,VALID,1.36094,
2011-02-05, 00:38:04,VALID,917.669,VALID,0,VALID,96.4362,VALID,0,VALID,19.3503,VALID,158,VALID,1.55859,
2011-02-05, 00:39:04,VALID,917.653,VALID,0,VALID,96.299,VALID,0,VALID,19.3923,VALID,141,VALID,1.13906,
2011-02-05, 00:40:04,VALID,917.665,VALID,0,VALID,96.177,VALID,0,VALID,19.3908,VALID,141,VALID,1.1332,
2011-02-05, 00:41:04,VALID,917.678,VALID,0,VALID,96.0093,VALID,0,VALID,19.3713,VALID,136,VALID,0.942578,
2011-02-05, 00:42:04,VALID,917.655,VALID,0,VALID,95.8187,VALID,0,VALID,19.3908,VALID,130,VALID,1.23047,
2011-02-05, 00:43:04,VALID,917.657,VALID,0,VALID,95.6053,VALID,0,VALID,19.3908,VALID,127,VALID,1.04766,
2011-02-05, 00:44:04,VALID,917.649,VALID,0,VALID,95.3994,VALID,0,VALID,19.3713,VALID,133,VALID,1.35859,
2011-02-05, 00:45:04,VALID,917.604,VALID,0,VALID,95.2317,VALID,0,VALID,19.3713,VALID,132,VALID,0.915234,
2011-02-05, 00:46:04,VALID,917.611,VALID,0,VALID,95.1555,VALID,0,VALID,19.3518,VALID,132,VALID,1.55391,
2011-02-05, 00:47:04,VALID,917.59,VALID,0,VALID,95.125,VALID,0,VALID,19.3113,VALID,132,VALID,1.14023,
2011-02-05, 00:48:04,VALID,917.583,VALID,0,VALID,95.1097,VALID,0,VALID,19.3128,VALID,144,VALID,1.50742,
2011-02-05, 00:49:04,VALID,917.578,VALID,0,VALID,95.1783,VALID,0,VALID,19.3128,VALID,148,VALID,1.41992,
2011-02-05, 00:50:04,VALID,917.587,VALID,0,VALID,95.1555,VALID,0,VALID,19.2723,VALID,141,VALID,0.842969,
2011-02-05, 00:51:04,VALID,917.618,VALID,0,VALID,95.1555,VALID,0,VALID,19.2738,VALID,134,VALID,0.905078,
2011-02-05, 00:52:04,VALID,917.626,VALID,0,VALID,95.1555,VALID,0,VALID,19.2348,VALID,134,VALID,0.572266,
2011-02-05, 00:53:04,VALID,917.62,VALID,0,VALID,95.2241,VALID,0,VALID,19.2348,VALID,134,VALID,0.935938,
2011-02-05, 00:54:04,VALID,917.635,VALID,0,VALID,95.2927,VALID,0.107441,VALID,19.2153,VALID,148,VALID,1.08359,
2011-02-05, 00:55:04,VALID,917.577,VALID,0,VALID,95.3537,VALID,0.107441,VALID,19.2153,VALID,123,VALID,1.11953,
2011-02-05, 00:56:04,VALID,917.573,VALID,0,VALID,95.3232,VALID,0,VALID,19.2348,VALID,147,VALID,1.14414,
2011-02-05, 00:57:04,VALID,917.56,VALID,0,VALID,95.2851,VALID,0,VALID,19.2153,VALID,170,VALID,0.685547,
2011-02-05, 00:58:04,VALID,917.519,VALID,0,VALID,95.2241,VALID,0,VALID,19.2153,VALID,170,VALID,0.673047,
2011-02-05, 00:59:04,VALID,917.517,VALID,0,VALID,95.1783,VALID,0,VALID,19.1958,VALID,170,VALID,1.10234,
2011-02-05, 01:00:04,VALID,917.518,VALID,0,VALID,95.2241,VALID,0,VALID,19.1568,VALID,170,VALID,0.639844,
2011-02-05, 01:01:04,VALID,917.492,VALID,0,VALID,95.3537,VALID,0.107441,VALID,19.1568,VALID,170,VALID,0.675781,
2011-02-05, 01:02:04,VALID,917.479,VALID,0,VALID,95.4071,VALID,0,VALID,19.1178,VALID,170,VALID,0.65,
2011-02-05, 01:03:04,VALID,917.462,VALID,0,VALID,95.4833,VALID,0,VALID,19.0788,VALID,170,VALID,0.472656,
2011-02-05, 01:04:04,VALID,917.461,VALID,0,VALID,95.5443,VALID,0,VALID,19.0593,VALID,170,VALID,0.779688,
2011-02-05, 01:05:04,VALID,917.46,VALID,0,VALID,95.59,VALID,0,VALID,19.0008,VALID,28,VALID,1.4625,
2011-02-05, 01:06:04,VALID,917.493,VALID,0,VALID,95.7196,VALID,0,VALID,18.9814,VALID,57,VALID,1.56328,
2011-02-05, 01:07:04,VALID,917.478,VALID,0,VALID,95.8568,VALID,0,VALID,19.0008,VALID,48,VALID,1.43555,
2011-02-05, 01:08:04,VALID,917.459,VALID,0,VALID,95.8187,VALID,0,VALID,19.0203,VALID,48,VALID,1.00742,
2011-02-05, 01:09:04,VALID,917.501,VALID,0,VALID,95.8263,VALID,0,VALID,19.0008,VALID,48,VALID,0.358984,
2011-02-05, 01:10:04,VALID,917.447,VALID,0,VALID,95.895,VALID,0,VALID,19.0203,VALID,16,VALID,0.811719,
2011-02-05, 01:11:04,VALID,917.455,VALID,0,VALID,95.8035,VALID,0,VALID,19.0008,VALID,17,VALID,1.02148,
2011-02-05, 01:12:04,VALID,917.464,VALID,0,VALID,95.9102,VALID,0,VALID,19.0008,VALID,17,VALID,0.9625,
2011-02-05, 01:13:04,VALID,917.442,VALID,0,VALID,95.9102,VALID,0,VALID,19.0203,VALID,17,VALID,0.401953,
2011-02-05, 01:14:04,VALID,917.424,VALID,0,VALID,95.895,VALID,0,VALID,18.9814,VALID,17,VALID,0.317969,
2011-02-05, 01:15:04,VALID,917.419,VALID,0,VALID,95.9331,VALID,0,VALID,18.9814,VALID,17,VALID,0.562891,
2011-02-05, 01:16:04,VALID,917.391,VALID,0,VALID,95.9254,VALID,0.107441,VALID,18.9619,VALID,17,VALID,0.186328,
2011-02-05, 01:17:04,VALID,917.438,VALID,0,VALID,95.9483,VALID,0,VALID,18.9619,VALID,17,VALID,0.178906,
2011-02-05, 01:18:04,VALID,917.398,VALID,0,VALID,95.9178,VALID,0,VALID,18.9633,VALID,17,VALID,0.384375,
2011-02-05, 01:19:04,VALID,917.394,VALID,0,VALID,95.8645,VALID,0,VALID,18.9229,VALID,17,VALID,0.480469,
2011-02-05, 01:20:04,VALID,917.401,VALID,0,VALID,95.8492,VALID,0,VALID,18.8644,VALID,17,VALID,0.2625,
2011-02-05, 01:21:04,VALID,917.362,VALID,0,VALID,95.9254,VALID,0,VALID,18.8449,VALID,17,VALID,0,
2011-02-05, 01:22:04,VALID,917.371,VALID,0,VALID,96.0093,VALID,0,VALID,18.8254,VALID,17,VALID,0.433203,
2011-02-05, 01:23:04,VALID,917.369,VALID,0,VALID,96.0779,VALID,0,VALID,18.8059,VALID,17,VALID,0.644141,
2011-02-05, 01:24:04,VALID,917.36,VALID,0,VALID,96.1541,VALID,0,VALID,18.8254,VALID,17,VALID,0.740234,
2011-02-05, 01:25:04,VALID,917.374,VALID,0,VALID,96.2228,VALID,0,VALID,18.7864,VALID,17,VALID,1.01367,
2011-02-05, 01:26:04,VALID,917.379,VALID,0,VALID,96.2609,VALID,0,VALID,18.7878,VALID,142,VALID,1.3207,
2011-02-05, 01:27:04,VALID,917.356,VALID,0,VALID,96.299,VALID,0,VALID,18.7669,VALID,163,VALID,0.920313,
2011-02-05, 01:28:04,VALID,917.397,VALID,0,VALID,96.3295,VALID,0,VALID,18.7669,VALID,163,VALID,0.925781,
2011-02-05, 01:29:04,VALID,917.423,VALID,0,VALID,96.4438,VALID,0,VALID,18.7864,VALID,163,VALID,1.32148,
2011-02-05, 01:30:04,VALID,917.399,VALID,0,VALID,96.4972,VALID,0,VALID,18.8059,VALID,161,VALID,1.10508,
2011-02-05, 01:31:04,VALID,917.414,VALID,0,VALID,96.5582,VALID,0,VALID,18.8449,VALID,151,VALID,1.07383,
2011-02-05, 01:32:04,VALID,917.44,VALID,0,VALID,96.5277,VALID,0,VALID,18.8254,VALID,151,VALID,0.907812,
2011-02-05, 01:33:04,VALID,917.462,VALID,0,VALID,96.6115,VALID,0,VALID,18.8644,VALID,151,VALID,0.877344,
2011-02-05, 01:34:04,VALID,917.473,VALID,0,VALID,96.642,VALID,0,VALID,18.9243,VALID,151,VALID,0.964453,
2011-02-05, 01:35:04,VALID,917.5,VALID,0,VALID,96.6497,VALID,0,VALID,18.9424,VALID,151,VALID,0.464844,
2011-02-05, 01:36:04,VALID,917.503,VALID,0,VALID,96.6725,VALID,0,VALID,18.9424,VALID,151,VALID,0.396484,
2011-02-05, 01:37:04,VALID,917.557,VALID,0,VALID,96.6649,VALID,0,VALID,18.9814,VALID,151,VALID,0.329688,
2011-02-05, 01:38:04,VALID,917.56,VALID,0,VALID,96.6725,VALID,0,VALID,19.0008,VALID,151,VALID,0.403125,
2011-02-05, 01:39:04,VALID,917.544,VALID,0,VALID,96.6878,VALID,0,VALID,19.0398,VALID,151,VALID,0.448438,
2011-02-05, 01:40:04,VALID,917.566,VALID,0,VALID,96.6725,VALID,0,VALID,19.0608,VALID,151,VALID,0.538281,
2011-02-05, 01:41:04,VALID,917.553,VALID,0,VALID,96.6344,VALID,0,VALID,19.0788,VALID,151,VALID,0.340625,
2011-02-05, 01:42:04,VALID,917.583,VALID,0,VALID,96.6649,VALID,0,VALID,19.1178,VALID,151,VALID,0.247266,
2011-02-05, 01:43:04,VALID,917.593,VALID,0,VALID,96.642,VALID,0,VALID,19.1178,VALID,151,VALID,0.479688,
2011-02-05, 01:44:04,VALID,917.631,VALID,0,VALID,96.6268,VALID,0,VALID,19.1373,VALID,151,VALID,0.259375,
2011-02-05, 01:45:04,VALID,917.622,VALID,0,VALID,96.6039,VALID,0,VALID,19.1373,VALID,151,VALID,0.470313,
2011-02-05, 01:46:04,VALID,917.603,VALID,0,VALID,96.5734,VALID,0,VALID,19.1568,VALID,151,VALID,0.469922,
2011-02-05, 01:47:04,VALID,917.595,VALID,0,VALID,96.5582,VALID,0,VALID,19.1763,VALID,151,VALID,0.609766,
2011-02-05, 01:48:04,VALID,917.608,VALID,0,VALID,96.5124,VALID,0,VALID,19.2153,VALID,151,VALID,0.752344,
2011-02-05, 01:49:04,VALID,917.628,VALID,0,VALID,96.4819,VALID,0,VALID,19.2153,VALID,151,VALID,0.770312,
2011-02-05, 01:50:04,VALID,917.584,VALID,0,VALID,96.4362,VALID,0,VALID,19.2348,VALID,151,VALID,0.748828,
2011-02-05, 01:51:04,VALID,917.587,VALID,0,VALID,96.3295,VALID,0,VALID,19.2348,VALID,145,VALID,0.911328,
2011-02-05, 01:52:04,VALID,917.562,VALID,0,VALID,96.2914,VALID,0,VALID,19.2738,VALID,130,VALID,0.928516,
2011-02-05, 01:53:04,VALID,917.565,VALID,0,VALID,96.2533,VALID,0,VALID,19.3128,VALID,130,VALID,0.892969,
2011-02-05, 01:54:04,VALID,917.548,VALID,0,VALID,96.1618,VALID,0,VALID,19.3323,VALID,130,VALID,0.696094,
2011-02-05, 01:55:04,VALID,917.566,VALID,0,VALID,96.0398,VALID,0,VALID,19.3713,VALID,130,VALID,0.774219,
2011-02-05, 01:56:04,VALID,917.582,VALID,0,VALID,95.9788,VALID,0,VALID,19.3923,VALID,130,VALID,0.691406,
2011-02-05, 01:57:04,VALID,917.575,VALID,0,VALID,95.8416,VALID,0,VALID,19.3503,VALID,131,VALID,0.293359,
2011-02-05, 01:58:04,VALID,917.583,VALID,0,VALID,95.7196,VALID,0,VALID,19.3503,VALID,143,VALID,0.978125,
2011-02-05, 01:59:04,VALID,917.575,VALID,0,VALID,95.6053,VALID,0,VALID,19.3713,VALID,144,VALID,1.1082,
2011-02-05, 02:00:04,VALID,917.557,VALID,0,VALID,95.5519,VALID,0,VALID,19.3323,VALID,126,VALID,0.896484,
2011-02-05, 02:01:04,VALID,917.557,VALID,0,VALID,95.6053,VALID,0,VALID,19.3128,VALID,126,VALID,0.376172,
2011-02-05, 02:02:04,VALID,917.581,VALID,0,VALID,95.6281,VALID,0,VALID,19.2933,VALID,126,VALID,0.646484,
2011-02-05, 02:03:04,VALID,917.568,VALID,0,VALID,95.7044,VALID,0,VALID,19.2543,VALID,126,VALID,0.739844,
2011-02-05, 02:04:04,VALID,917.545,VALID,0,VALID,95.8035,VALID,0,VALID,19.2543,VALID,157,VALID,0.787109,
2011-02-05, 02:05:04,VALID,917.561,VALID,0,VALID,95.8035,VALID,0,VALID,19.2348,VALID,157,VALID,0.425,
2011-02-05, 02:06:04,VALID,917.58,VALID,0,VALID,95.8721,VALID,0,VALID,19.2348,VALID,157,VALID,0.667188,
2011-02-05, 02:07:04,VALID,917.597,VALID,0,VALID,95.9026,VALID,0,VALID,19.2348,VALID,157,VALID,0.725391,
2011-02-05, 02:08:04,VALID,917.565,VALID,0,VALID,95.9483,VALID,0,VALID,19.2348,VALID,150,VALID,0.680078,
2011-02-05, 02:09:04,VALID,917.566,VALID,0,VALID,95.9331,VALID,0,VALID,19.2348,VALID,143,VALID,0.633203,
2011-02-05, 02:10:04,VALID,917.533,VALID,0,VALID,95.8873,VALID,0,VALID,19.2334,VALID,143,VALID,1.17852,
2011-02-05, 02:11:04,VALID,917.522,VALID,0,VALID,95.8721,VALID,0,VALID,19.2348,VALID,138,VALID,1.26563,
2011-02-05, 02:12:04,VALID,917.493,VALID,0,VALID,95.8263,VALID,0,VALID,19.2348,VALID,136,VALID,1.12539,
2011-02-05, 02:13:04,VALID,917.477,VALID,0,VALID,95.7882,VALID,0,VALID,19.2153,VALID,138,VALID,0.724219,
2011-02-05, 02:14:04,VALID,917.485,VALID,0,VALID,95.7958,VALID,0,VALID,19.1944,VALID,150,VALID,1.20352,
2011-02-05, 02:15:04,VALID,917.497,VALID,0,VALID,95.8035,VALID,0,VALID,19.1763,VALID,162,VALID,0.967188,
2011-02-05, 02:16:04,VALID,917.519,VALID,0,VALID,95.8645,VALID,0,VALID,19.1763,VALID,172,VALID,0.635156,
2011-02-05, 02:17:04,VALID,917.496,VALID,0,VALID,95.895,VALID,0.107441,VALID,19.1359,VALID,149,VALID,0.674609,
2011-02-05, 02:18:04,VALID,917.518,VALID,0,VALID,95.8721,VALID,0,VALID,19.1178,VALID,148,VALID,0.670703,
2011-02-05, 02:19:04,VALID,917.526,VALID,0,VALID,95.9407,VALID,0,VALID,19.0788,VALID,148,VALID,0.607422,
2011-02-05, 02:20:04,VALID,917.521,VALID,0,VALID,95.9941,VALID,0,VALID,19.0593,VALID,148,VALID,0.895312,
2011-02-05, 02:21:04,VALID,917.518,VALID,0,VALID,96.0703,VALID,0,VALID,19.0593,VALID,148,VALID,0.973828,
2011-02-05, 02:22:04,VALID,917.486,VALID,0,VALID,96.116,VALID,0,VALID,19.0384,VALID,148,VALID,0.450781,
2011-02-05, 02:23:04,VALID,917.467,VALID,0,VALID,96.1846,VALID,0,VALID,19.0189,VALID,148,VALID,0.141406,
2011-02-05, 02:24:04,VALID,917.456,VALID,0,VALID,96.2533,VALID,0,VALID,19.0593,VALID,148,VALID,0.59375,
2011-02-05, 02:25:04,VALID,917.419,VALID,0,VALID,96.2609,VALID,0,VALID,19.0398,VALID,148,VALID,0.360156,
2011-02-05, 02:26:04,VALID,917.432,VALID,0,VALID,96.3219,VALID,0,VALID,19.0413,VALID,148,VALID,0.513672,
2011-02-05, 02:27:04,VALID,917.4,VALID,0,VALID,96.3371,VALID,0,VALID,19.0203,VALID,148,VALID,0.525,
2011-02-05, 02:28:04,VALID,917.35,VALID,0,VALID,96.3219,VALID,0,VALID,19.0008,VALID,148,VALID,0.784375,
2011-02-05, 02:29:04,VALID,917.35,VALID,0,VALID,96.3524,VALID,0,VALID,19.0203,VALID,148,VALID,0.562109,
2011-02-05, 02:30:04,VALID,917.327,VALID,0,VALID,96.4286,VALID,0,VALID,19.0593,VALID,148,VALID,1.20391,
2011-02-05, 02:31:04,VALID,917.358,VALID,0,VALID,96.4515,VALID,0,VALID,19.0788,VALID,148,VALID,1.01406,
2011-02-05, 02:32:04,VALID,917.302,VALID,0,VALID,96.4438,VALID,0,VALID,19.0788,VALID,148,VALID,0.689453,
2011-02-05, 02:33:04,VALID,917.317,VALID,0,VALID,96.421,VALID,0,VALID,19.0983,VALID,148,VALID,1.40078,
2011-02-05, 02:34:04,VALID,917.304,VALID,0,VALID,96.4438,VALID,0,VALID,19.1178,VALID,148,VALID,1.20781,
2011-02-05, 02:35:04,VALID,917.28,VALID,0,VALID,96.4057,VALID,0,VALID,19.1373,VALID,148,VALID,0.979297,
2011-02-05, 02:36:04,VALID,917.266,VALID,0,VALID,96.3752,VALID,0,VALID,19.1568,VALID,159,VALID,1.35195,
2011-02-05, 02:37:04,VALID,917.265,VALID,0,VALID,96.3371,VALID,0,VALID,19.1568,VALID,144,VALID,0.882813,
2011-02-05, 02:38:04,VALID,917.267,VALID,0,VALID,96.3142,VALID,0,VALID,19.1359,VALID,175,VALID,1.05547,
2011-02-05, 02:39:04,VALID,917.228,VALID,0,VALID,96.2228,VALID,0,VALID,19.1373,VALID,174,VALID,0.867969,
2011-02-05, 02:40:04,VALID,917.211,VALID,0,VALID,96.1999,VALID,0,VALID,19.1583,VALID,165,VALID,1.20742,
2011-02-05, 02:41:04,VALID,917.217,VALID,0,VALID,96.1846,VALID,0,VALID,19.1373,VALID,162,VALID,0.724219,
2011-02-05, 02:42:04,VALID,917.178,VALID,0,VALID,96.1236,VALID,0,VALID,19.0983,VALID,162,VALID,0.749219,
2011-02-05, 02:43:04,VALID,917.182,VALID,0,VALID,96.1084,VALID,0,VALID,19.1178,VALID,162,VALID,0.563281,
2011-02-05, 02:44:04,VALID,917.161,VALID,0,VALID,96.116,VALID,0,VALID,19.1178,VALID,138,VALID,0.723828,
2011-02-05, 02:45:04,VALID,917.149,VALID,0,VALID,96.116,VALID,0,VALID,19.0983,VALID,146,VALID,1.06836,
2011-02-05, 02:46:04,VALID,917.154,VALID,0,VALID,96.0779,VALID,0,VALID,19.0788,VALID,146,VALID,0.803906,
2011-02-05, 02:47:04,VALID,917.141,VALID,0,VALID,96.1008,VALID,0,VALID,19.0983,VALID,112,VALID,0.731641,
2011-02-05, 02:48:04,VALID,917.094,VALID,0,VALID,96.1084,VALID,0,VALID,19.0788,VALID,112,VALID,0.904688,
2011-02-05, 02:49:04,VALID,917.063,VALID,0,VALID,96.1008,VALID,0.107441,VALID,19.0593,VALID,112,VALID,0.661328,
2011-02-05, 02:50:04,VALID,917.053,VALID,0,VALID,96.1541,VALID,0.107441,VALID,19.0593,VALID,112,VALID,0.669531,
2011-02-05, 02:51:04,VALID,917.012,VALID,0,VALID,96.1541,VALID,0.107441,VALID,19.0398,VALID,112,VALID,0.710156,
2011-02-05, 02:52:04,VALID,917.004,VALID,0,VALID,96.1923,VALID,0.107441,VALID,19.0384,VALID,112,VALID,1.07813,
2011-02-05, 02:53:04,VALID,916.987,VALID,0,VALID,96.2075,VALID,0.107441,VALID,19.0189,VALID,144,VALID,0.898438,
2011-02-05, 02:54:04,VALID,916.974,VALID,0,VALID,96.2228,VALID,0,VALID,18.9994,VALID,144,VALID,1.48242,
2011-02-05, 02:55:04,VALID,916.96,VALID,0,VALID,96.238,VALID,0,VALID,18.9994,VALID,140,VALID,1.0918,
2011-02-05, 02:56:04,VALID,916.91,VALID,0,VALID,96.2151,VALID,0,VALID,18.9799,VALID,139,VALID,0.958984,
2011-02-05, 02:57:04,VALID,916.946,VALID,0,VALID,96.2151,VALID,0,VALID,18.9814,VALID,140,VALID,0.636719,
2011-02-05, 02:58:04,VALID,916.958,VALID,0,VALID,96.2151,VALID,0,VALID,18.9409,VALID,140,VALID,0.6125,
2011-02-05, 02:59:04,VALID,916.961,VALID,0,VALID,96.2304,VALID,0.107441,VALID,18.9409,VALID,140,VALID,1.11016,
2011-02-05, 03:00:04,VALID,916.966,VALID,0,VALID,96.2228,VALID,0,VALID,18.9842,VALID,127,VALID,0.559375,
2011-02-05, 03:01:04,VALID,916.929,VALID,0,VALID,96.238,VALID,0.107441,VALID,18.92,VALID,127,VALID,0.436328,
2011-02-05, 03:02:04,VALID,916.982,VALID,0,VALID,96.2228,VALID,0,VALID,18.9229,VALID,127,VALID,0.574219,
2011-02-05, 03:03:04,VALID,916.965,VALID,0,VALID,96.2761,VALID,0,VALID,18.9424,VALID,126,VALID,0.530078,
2011-02-05, 03:04:04,VALID,916.985,VALID,0,VALID,96.2533,VALID,0,VALID,18.9438,VALID,127,VALID,0.487891,
2011-02-05, 03:05:04,VALID,916.927,VALID,0,VALID,96.3295,VALID,0,VALID,18.9424,VALID,127,VALID,0.689453,
2011-02-05, 03:06:04,VALID,916.9,VALID,0,VALID,96.299,VALID,0,VALID,18.9438,VALID,127,VALID,0.809766,
2011-02-05, 03:07:04,VALID,916.857,VALID,0,VALID,96.3524,VALID,0,VALID,18.9619,VALID,127,VALID,0.739062,
2011-02-05, 03:08:04,VALID,916.834,VALID,0,VALID,96.3142,VALID,0,VALID,18.9424,VALID,127,VALID,0.580078,
2011-02-05, 03:09:04,VALID,916.797,VALID,0,VALID,96.3371,VALID,0,VALID,18.9633,VALID,127,VALID,0.793359,
2011-02-05, 03:10:04,VALID,916.758,VALID,0,VALID,96.2533,VALID,0,VALID,18.9048,VALID,126,VALID,0.529297,
2011-02-05, 03:11:04,VALID,916.78,VALID,0,VALID,96.2228,VALID,0,VALID,18.9048,VALID,126,VALID,0.535156,
2011-02-05, 03:12:04,VALID,916.75,VALID,0,VALID,96.1999,VALID,0,VALID,18.8658,VALID,127,VALID,0.351563,
2011-02-05, 03:13:04,VALID,916.758,VALID,0,VALID,96.177,VALID,0,VALID,18.8463,VALID,127,VALID,0.737109,
2011-02-05, 03:14:04,VALID,916.734,VALID,0,VALID,96.1999,VALID,0,VALID,18.8059,VALID,126,VALID,0.6375,
2011-02-05, 03:15:04,VALID,916.715,VALID,0,VALID,96.1923,VALID,0,VALID,18.7669,VALID,126,VALID,0.848047,
2011-02-05, 03:16:04,VALID,916.663,VALID,0,VALID,96.2151,VALID,0,VALID,18.7488,VALID,126,VALID,0.992969,
2011-02-05, 03:17:04,VALID,916.687,VALID,0,VALID,96.3066,VALID,0,VALID,18.7474,VALID,126,VALID,0.908984,
2011-02-05, 03:18:04,VALID,916.648,VALID,0,VALID,96.3295,VALID,0,VALID,18.7488,VALID,125,VALID,1.04453,
2011-02-05, 03:19:04,VALID,916.661,VALID,0,VALID,96.3752,VALID,0,VALID,18.7683,VALID,125,VALID,0.671094,
2011-02-05, 03:20:04,VALID,916.651,VALID,0,VALID,96.4438,VALID,0,VALID,18.8073,VALID,124,VALID,0.594922,
2011-02-05, 03:21:04,VALID,916.646,VALID,0,VALID,96.4667,VALID,0,VALID,18.7864,VALID,124,VALID,0.548047,
2011-02-05, 03:22:04,VALID,916.635,VALID,0,VALID,96.421,VALID,0,VALID,18.7669,VALID,125,VALID,0.501953,
2011-02-05, 03:23:04,VALID,916.634,VALID,0,VALID,96.299,VALID,0,VALID,18.7279,VALID,124,VALID,0.357422,
2011-02-05, 03:24:04,VALID,916.632,VALID,0,VALID,96.0703,VALID,0,VALID,18.6109,VALID,125,VALID,0.396484,
2011-02-05, 03:25:04,VALID,916.638,VALID,0,VALID,95.8873,VALID,0,VALID,18.5149,VALID,124,VALID,0.536328,
2011-02-05, 03:26:04,VALID,916.627,VALID,0,VALID,96.0093,VALID,0,VALID,18.4759,VALID,124,VALID,0.571484,
2011-02-05, 03:27:04,VALID,916.614,VALID,0,VALID,96.2075,VALID,0,VALID,18.4759,VALID,124,VALID,0.518359,
2011-02-05, 03:28:04,VALID,916.64,VALID,0,VALID,96.2456,VALID,0,VALID,18.4759,VALID,124,VALID,0.606641,
2011-02-05, 03:29:04,VALID,916.642,VALID,0,VALID,96.3219,VALID,0,VALID,18.4564,VALID,124,VALID,0.511328,
2011-02-05, 03:30:04,VALID,916.64,VALID,0,VALID,96.4896,VALID,0,VALID,18.5163,VALID,124,VALID,0.458203,
2011-02-05, 03:31:04,VALID,916.649,VALID,0,VALID,96.6344,VALID,0,VALID,18.5344,VALID,124,VALID,0.41875,
2011-02-05, 03:32:04,VALID,916.646,VALID,0,VALID,96.6878,VALID,0,VALID,18.5525,VALID,124,VALID,0.227734,
2011-02-05, 03:33:04,VALID,916.643,VALID,0,VALID,96.703,VALID,0,VALID,18.572,VALID,124,VALID,0.00195313,
2011-02-05, 03:34:04,VALID,916.616,VALID,0,VALID,96.7411,VALID,0,VALID,18.6109,VALID,124,VALID,0,
2011-02-05, 03:35:04,VALID,916.621,VALID,0,VALID,96.6954,VALID,0,VALID,18.6109,VALID,124,VALID,0,
2011-02-05, 03:36:04,VALID,916.62,VALID,0,VALID,96.6802,VALID,0,VALID,18.5734,VALID,124,VALID,0.415625,
2011-02-05, 03:37:04,VALID,916.59,VALID,0,VALID,96.6878,VALID,0,VALID,18.572,VALID,124,VALID,0.472266,
2011-02-05, 03:38:04,VALID,916.598,VALID,0,VALID,96.6649,VALID,0,VALID,18.5344,VALID,124,VALID,0.406641,
2011-02-05, 03:39:04,VALID,916.599,VALID,0,VALID,96.642,VALID,0,VALID,18.5149,VALID,124,VALID,0.467969,
2011-02-05, 03:40:04,VALID,916.599,VALID,0,VALID,96.7259,VALID,0,VALID,18.4745,VALID,124,VALID,0.610547,
2011-02-05, 03:41:04,VALID,916.601,VALID,0,VALID,96.6192,VALID,0,VALID,18.455,VALID,124,VALID,0.778516,
2011-02-05, 03:42:04,VALID,916.584,VALID,0,VALID,96.4972,VALID,0,VALID,18.3589,VALID,124,VALID,0.841406,
2011-02-05, 03:43:04,VALID,916.611,VALID,0,VALID,96.5429,VALID,0,VALID,18.2796,VALID,124,VALID,0.866016,
2011-02-05, 03:44:04,VALID,916.618,VALID,0,VALID,96.7411,VALID,0,VALID,18.3575,VALID,124,VALID,0.828906,